Regional Weather Roundup
Issued by NWS

Home | Current Version | Previous Version | Graphics & Text | Print | Product List | Glossary On
Versions: 1 2 3 4 5 6 7 8 9 10 11 12 13 14 15 16 17 18 19 20 21 22 23 24 25 26 27
000
ASUS45 KBOU 250306
RWRCO

WEATHER ROUNDUP FOR COLORADO
NATIONAL WEATHER SERVICE DENVER/BOULDER CO
900 PM MDT THU APR 24 2014

NOTE: "FAIR" INDICATES FEW OR NO CLOUDS BELOW 12000 FEET WITH NO
SIGNIFICANT WEATHER AND/OR OBSTRUCTIONS TO VISIBILITY.

COZ001>005-013-030-031-250400-
...NORTHWEST COLORADO...

CITY           SKY/WX    TMP DP  RH WIND       PRES   REMARKS
CRAIG          CLOUDY    49  24  37 SW3       29.99R
HAYDEN         CLOUDY    46  23  39 S6        30.02R
MEEKER         MOCLDY    49  19  30 W5        30.01R
MOUNT WERNER   CLOUDY    36  12  38 W14G22    30.15R
STEAMBOAT SPGS CLOUDY    50  15  25 CALM      30.02R
WALDEN         CLOUDY    41  16  36 SE6       30.04R
$$

COZ006>008-011-250400-
...WEST CENTRAL VALLEYS...

CITY           SKY/WX    TMP DP  RH WIND       PRES   REMARKS
GRAND JUNCTION MOCLDY    52  16  24 NE7       29.97R
MONTROSE       MOCLDY    53  20  27 CALM      30.03R
EAGLE          MOCLDY    52  12  20 SW5       30.05R
RIFLE          MOCLDY    57  10  15 CALM      30.00R
DELTA          NOT AVBL
NUCLA          NOT AVBL
$$

COZ017>023-064>068-250400-
...SOUTHWEST COLORADO...

CITY           SKY/WX    TMP DP  RH WIND       PRES   REMARKS
DURANGO        CLEAR     47  -8  10 SW6       30.07R
CORTEZ         CLEAR     44   8  23 E3        30.04R
PAGOSA SPRINGS CLEAR     40   4  21 CALM      30.12R
TELLURIDE      PTCLDY    45   9  23 S3        30.14S
WOLF CREEK PAS PTCLDY    28   0  29 SW22G29   30.24R WCI  15
$$

COZ009-010-012-014-032>034-037-058>063-250400-
...CENTRAL COLORADO...

CITY           SKY/WX    TMP DP  RH WIND       PRES   REMARKS
ASPEN          CLOUDY    44  16  32 NW3       30.06R
BUENA VISTA    MOCLDY    47   7  19 NW10      30.05S
COPPER MTN     PTCLDY    32  10  40 W9G18     30.20R WCI  24
BERTHOUD PASS  FAIR      23  14  68 NW18      30.19R WCI   9
COTTONWOOD PAS MOCLDY    43   3  19 NW10G28   30.11R
GUNNISON       MOCLDY    45   7  21 CALM      30.11R
KREMMLING      PTCLDY    50  12  22 W9G17     30.04R
LEADVILLE      CLOUDY    38   9  30 NE6       30.12R
MONARCH PASS   MOCLDY    30   5  34 W29G41    30.30R WCI  15
SALIDA         MOCLDY    51   7  16 SW16      30.10R
SUNLIGHT       CLOUDY    34  19  55 CALM      30.18R
WILKERSON PASS PTCLDY    32  10  40 W6G16     30.17S WCI  26
$$

COZ069>075-250400-
...SAN LUIS VALLEY/SANGRE DE CRISTO MOUNTAINS...

CITY           SKY/WX    TMP DP  RH WIND       PRES   REMARKS
ALAMOSA        CLEAR     50   8  18 SW14      30.04R
LA VETA PASS   PTCLDY    39   5  24 SW15G30   30.12R
SAGUACHE       MOCLDY    48   7  18 NW12      30.06R
$$

COZ035-036-038>040-250400-
...NORTHERN COLORADO FRONT RANGE...

CITY           SKY/WX    TMP DP  RH WIND       PRES   REMARKS
DENVER INTL AP MOCLDY    48  32  53 SE9       29.90R
DMNS CITY PARK   N/A     58  27  31 NW5       29.90R
AURORA         PTCLDY    52  30  43 SE7       29.91R
FRONT RANGE AP NOT AVBL
ERIE MUNI ARPT MOCLDY    52  32  46 E3        29.90R
BOULDER MUN AP MOCLDY    52  30  43 NW6       29.91R
CENTENNIAL     MOCLDY    54  26  34 SE7       29.92R
BROOMFIELD     NOT AVBL
FORT COLLINS   PTCLDY    54  27  35 CALM      29.92R
LONGMONT       NOT AVBL
$$

COZ041-046-047-076>085-087-088-250400-
...PIKES PEAK/PALMER DIVIDE AND SOUTHERN FOOTHILLS...

CITY           SKY/WX    TMP DP  RH WIND       PRES   REMARKS
COLO. SPRINGS  PTCLDY    50  19  29 E7        29.98R
A. F. ACADEMY  PTCLDY    47  20  33 SE9       29.98R
ELLICOTT       NOT AVBL
FALCON         PTCLDY    44  18  34 S5        30.00R
FORT CARSON    NOT AVBL
LIMON          PTCLDY    42  19  39 SE5       29.94R
MONUMENT HILL  MOCLDY    43  25  49 S10       29.97R
TRINIDAD       CLEAR     56  23  27 W12       29.92R
$$

COZ042>045-048>051-090-091-250400-
...NORTHEAST COLORADO...

CITY           SKY/WX    TMP DP  RH WIND       PRES   REMARKS
GREELEY ARPT   PTCLDY    52  25  35 E6        29.90R
AKRON          CLOUDY    50  22  33 S7        29.90R
BURLINGTON     CLEAR     48  14  25 SE7       29.92R
WRAY           PTCLDY    52  22  31 SW3       29.88R
STERLING       NOT AVBL
HOLYOKE        NOT AVBL
FORT MORGAN    NOT AVBL
$$

COZ086-089-092>099-250400-
...SOUTHEAST COLORADO...

CITY           SKY/WX    TMP DP  RH WIND       PRES   REMARKS
PUEBLO         CLEAR     57  21  24 E13       29.90R
LA JUNTA       CLEAR     56  23  27 E16       29.87R
LAMAR          CLEAR     53  23  31 SE8       29.88R
SPRINGFIELD      N/A     52  23  32 S14       29.92S
$$



USA.gov is the U.S. government's official web portal to all federal, state and local government web resources and services.